Regional Weather Roundup
Issued by NWS Memphis, TN

Home | Current Version | Previous Version | Text Only | Print | Product List | Glossary On
Versions: 1 2 3 4 5 6 7 8 9 10 11 12 13 14 15 16 17 18 19 20 21 22 23 24 25 26 27 28 29 30 31 32 33 34 35 36 37 38 39 40 41 42 43 44 45 46 47 48 49 50
000
ASUS44 KMEG 082310
RWRMEG
MEMPHIS CWA HOURLY WEATHER ROUNDUP
NATIONAL WEATHER SERVICE MEMPHIS TN
500 PM CST MON FEB 08 2016

...WEST TENNESSEE...

CITY           SKY/WX    TMP DP  RH WIND       PRES   REMARKS
MEMPHIS INTL   CLOUDY    41  23  48 NW23G44   29.97R
NWS MEMPHIS      N/A     41 N/A N/A MISG        N/A
JACKSON        CLOUDY    37  23  56 NW16G28   29.95R WCI  28
DYERSBURG      CLOUDY    36  19  51 NW23G32   29.97R WCI  24
UNION CITY     CLOUDY    34  19  55 W15       29.91S WCI  24
PARIS          MOCLDY    30  19  64 NW12      29.90R WCI  21


...EASTERN ARKANSAS...

CITY           SKY/WX    TMP DP  RH WIND       PRES   REMARKS
JONESBORO      CLOUDY    37  19  48 NW21G29   30.00R WCI  26
WEST MEMPHIS   CLOUDY    39  25  57 N10G18    29.99R WCI  32
BATESVILLE     CLOUDY    37  16  41 W12G22    30.03R WCI  30
NEWPORT        CLOUDY    39  17  41 NW16      30.04R HAZE    WCI  30
WALNUT RIDGE   CLOUDY    37  16  41 NW22G28   30.01S WCI  27
BLYTHEVILLE    CLOUDY    39  22  50 NW22G33   29.98R WCI  29
NW BLYTHEVILLE CLOUDY    37  21  52 NW25G32   29.97R WCI  26
SEARCY         CLOUDY    43  19  39 NW15G22   30.05R
STUTTGART      CLOUDY    45  19  36 NW17G23   30.04R
PINE BLUFF     PTCLDY    45  18  34 NW17G30   30.05S
MONTICELLO     MOCLDY    48  17  29 NW12G21   30.04R


...NORTH MISSISSIPPI...

CITY           SKY/WX    TMP DP  RH WIND       PRES   REMARKS
TUPELO         CLOUDY    43  20  39 SW10G20   29.95S
OXFORD         PTCLDY    41  18  38 W15       29.98S
TUNICA         CLOUDY    41  21  45 W20G28    30.01R
CORINTH        CLOUDY    41  21  45 NW10G20   29.93R
GREENWOOD      CLOUDY    46  18  32 NW14G21   30.02S
COLUMBUS       CLOUDY    44  24  45 W16G22    29.96R
STARKVILLE     CLOUDY    43  23  45 NW7       29.99R
GOLDEN TRIANGL CLOUDY    43  21  42 NW17G29   29.97R


...SOUTHEAST MISSOURI...

CITY           SKY/WX    TMP DP  RH WIND       PRES   REMARKS
WEST PLAINS    CLOUDY    31  17  56 NW17G24   29.98R WCI  19
POPLAR BLUFF   CLOUDY    35  16  45 NW18G25   29.95R WCI  24
CAPE GIRARDEAU CLOUDY    31  17  56 NW17G25   29.94R WCI  19


...NORTHWEST ALABAMA...

CITY           SKY/WX    TMP DP  RH WIND       PRES   REMARKS
MUSCLE SHOALS  CLOUDY    41  20  43 W17       29.91S


...MIDDLE TENNESSEE...

CITY           SKY/WX    TMP DP  RH WIND       PRES   REMARKS
NASHVILLE      FLURRIES  33  26  75 W10       29.87R WCI  25
CLARKSVILLE    LGT SNOW  30  27  88 NW10      29.88R FOG     WCI  21
COLUMBIA       CLOUDY    36  25  64 W8        29.86R WCI  29


...WESTERN KENTUCKY...

CITY           SKY/WX    TMP DP  RH WIND       PRES   REMARKS
PADUCAH        CLOUDY    32  18  56 NW14G21   29.90R WCI  22
FORT CAMPBELL  FLURRIES  30  27  86 NW9       29.87R WCI  22


...CENTRAL ARKANSAS...

CITY           SKY/WX    TMP DP  RH WIND       PRES   REMARKS
LITTLE ROCK    MOCLDY    46  16  30 NW18G31   30.05S


SKY/WX REPORTED AS FAIR MEANS FEW OR NO CLOUDS BELOW
12 THOUSAND FEET.




USA.gov is the U.S. government's official web portal to all federal, state and local government web resources and services.